Hourly Data Report for October 06, 2014

All times are specified in Local Standard Time (LST). Add 1 hour to adjust for Daylight Saving Time where and when it is observed.

PETAWAWA AWOS 2
ONTARIO

45°57'00.000" N
77°19'00.000" W
130.10 m
6106396
71625
YWA

Download Data

Hourly Data (October 2014)
Hourly Data Report for October 6, 2014
Temp Definition
°C
Dew Point Temp Definition
°C
Rel Hum Definition
%
Wind Dir Definition
10's deg

Wind Spd Definition
km/h
Visibility Definition
km
Stn Press Definition
kPa
Hmdx Definition


Wind Chill Definition


Weather Definition


TIME
00:00 7.5 4.0 78 17 11 14.5 99.27     LegendNANA
01:00 7.9 4.0 76 17 11 14.5 99.30     LegendNANA
02:00 8.1 4.1 76 15 9 14.5 99.26     LegendNANA
03:00
04:00
05:00 8.1 4.3 77 14 15 14.5 99.20     LegendNANA
06:00 8.1 4.4 78 14 15 14.5 99.21     LegendNANA
07:00 8.4 4.5 76 14 15 14.5 99.21     LegendNANA
08:00 8.4 4.1 74 16 19 14.5 99.23     Rain
09:00 8.6 4.8 77 16 17 14.5 99.27     Rain
10:00 9.6 5.5 76 17 15 14.5 99.29     Rain
11:00 10.1 6.4 78 17 13 14.5 99.32     Rain
12:00 9.9 7.0 82 16 20 9.7 99.29     Rain
13:00 10.9 7.8 81 16 17 14.5 99.25     Rain
14:00 12.0 7.9 76 16 11 14.5 99.23     LegendNANA
15:00
16:00 12.9 6.8 66 16 17 14.5 99.25     LegendNANA
17:00
18:00 12.5 7.1 70 15 13 14.5 99.30     LegendNANA
19:00 12.5 7.2 70 15 15 14.5 99.30     LegendNANA
20:00 13.2 7.2 67 13 19 14.5 99.26     LegendNANA
21:00 11.1 8.2 82 19 4 4.0 99.28     Rain
22:00 11.3 8.9 85 14 9 9.7 99.21     Rain
23:00 11.5 9.5 88 12 15 8.0 99.11     Moderate Rain

Notes on Data Quality.

Legend

  • E = Estimated
  • M = Missing
  • NA = Not Available
  • ‡ = Partner data that is not subject to review by the National Climate Archives
Date modified: